Location: ????????
(60.4333°N, 46.4710°E)
Time: 04:37:25
(UTC+00:00)

PAYLOAD B - Pass Details

Date: 25 November 2020
Orbit: 849 x 872 km, 99.1° (Epoch: 19 January)

Event Time Altitude Azimuth Distance (km) Brightness Sun altitude
Rises 13:21:16 0° 156° (SSE) 3,449 7.4 -8.8°
Reaches altitude 10° 13:23:38 10° 156° (SSE) 2,513 6.7 -9.0°
Maximum altitude 13:29:14 86° 68° (ENE) 877 4.3 -9.7°
Drops below altitude 10° 13:34:51 10° 341° (NNW) 2,514 6.6 -10.3°
Sets 13:37:13 0° 341° (NNW) 3,452 7.3 -10.6°
